EST,Max TemperatureF,Mean TemperatureF,Min TemperatureF,Max Dew PointF,MeanDew PointF,Min DewpointF,Max Humidity, Mean Humidity, Min Humidity, Max Sea Level PressureIn, Mean Sea Level PressureIn, Min Sea Level PressureIn, Max VisibilityMiles, Mean VisibilityMiles, Min VisibilityMiles, Max Wind SpeedMPH, Mean Wind SpeedMPH, Max Gust SpeedMPH,PrecipitationIn, CloudCover, Events, WindDirDegrees
2012-11-1,55,50,44,40,39,37,80,65,51,29.58,29.55,29.51,10,10,10,14,6,20,0.00,5,,227
2012-11-2,53,48,44,40,37,33,85,66,53,29.62,29.58,29.54,10,10,10,12,6,,0.01,6,Rain,268
2012-11-3,52,47,41,34,33,29,71,60,49,29.81,29.72,29.63,10,10,10,15,7,24,0.00,4,,290
2012-11-4,53,44,37,33,30,27,70,60,48,29.97,29.89,29.81,10,10,10,15,7,21,0.00,2,,313
2012-11-5,44,38,30,26,21,16,62,51,38,30.15,30.04,29.98,10,10,10,13,7,21,0.00,5,,319
2012-11-6,42,33,24,21,17,12,78,56,29,30.26,30.22,30.17,10,10,10,8,3,,0.00,0,,319
2012-11-7,37,34,30,28,22,14,87,64,39,30.20,29.98,29.82,10,7,1,24,15,38,0.03,8,Snow,22
2012-11-8,39,36,32,36,33,28,93,86,70,29.80,29.73,29.68,10,6,2,22,17,32,0.23,8,Rain-Snow,359
2012-11-9,52,44,37,30,26,20,70,51,29,30.11,29.95,29.78,10,10,10,18,11,23,0.00,2,,305
2012-11-10,54,44,34,33,27,22,79,57,30,30.48,30.30,30.10,10,10,10,13,5,22,0.00,0,,290
2012-11-11,63,48,34,44,38,28,81,66,45,30.52,30.47,30.42,10,10,10,14,3,17,0.00,4,,204
2012-11-12,69,60,51,57,49,43,83,69,45,30.48,30.39,30.24,10,10,7,14,7,22,0.00,1,,191
2012-11-13,66,52,39,59,45,28,86,78,62,30.45,30.26,30.13,10,10,7,12,8,26,0.26,7,Rain,280
2012-11-14,46,40,33,28,23,20,70,56,37,30.57,30.52,30.46,10,10,10,14,7,21,0.00,1,,12
2012-11-15,45,38,30,31,26,22,82,68,46,30.50,30.42,30.33,10,10,10,13,7,,0.00,1,,27
2012-11-16,46,39,32,30,27,24,89,67,49,30.45,30.35,30.32,10,10,10,6,2,,0.00,0,,352
2012-11-17,48,38,28,30,27,24,85,68,42,30.68,30.61,30.46,10,10,6,7,1,,0.00,0,,37
2012-11-18,46,36,26,30,26,23,93,76,46,30.75,30.70,30.66,10,7,0,10,1,,0.00,1,Fog,63
2012-11-19,48,37,26,33,27,21,93,79,52,30.65,30.45,30.30,10,7,0,6,1,,0.00,2,Fog,61
2012-11-20,50,38,25,31,26,21,93,78,40,30.28,30.23,30.16,10,5,0,7,0,,0.00,1,Fog,53
2012-11-21,51,42,33,38,33,25,87,70,53,30.29,30.25,30.19,10,10,10,9,4,,0.00,4,,29
2012-11-22,55,46,37,39,36,32,93,76,47,30.30,30.23,30.15,10,8,1,5,0,,0.00,2,,166
2012-11-23,57,45,33,42,35,30,100,87,49,30.14,30.02,29.65,10,4,0,8,2,,0.00,2,Fog,203
2012-11-24,48,40,32,43,26,14,87,55,35,29.65,29.59,29.53,10,10,10,21,9,31,0.00,4,Rain,267
2012-11-25,37,34,30,21,16,8,67,48,29,29.86,29.76,29.67,10,10,10,18,12,25,0.00,2,,253
2012-11-26,46,37,28,25,21,18,72,56,34,30.26,30.04,29.86,10,10,10,16,8,23,0.00,2,,249
2012-11-27,36,31,26,33,30,21,93,87,72,30.35,30.29,30.26,10,6,2,7,1,,0.05,7,Rain-Snow,287
2012-11-28,37,32,28,30,24,20,87,70,52,30.25,30.19,30.14,10,10,9,10,6,,0.00,6,,4
2012-11-29,43,36,28,24,21,18,78,56,41,30.26,30.19,30.16,10,10,10,16,9,22,0.00,1,,235
2012-11-30,37,32,28,24,9,1,64,42,29,30.58,30.48,30.25,10,10,10,12,7,21,0.00,5,,356